User: anonymous   Login
Location: Pasadena, ca
(34.1243°N, 118.1037°W)
Time: 12:29:56
(UTC-08:00)
Language:

ISS - Orbit

View from above orbital plane
View from above orbital plane
View from above satellite
View from above satellite

Ground track
Ground track

The orbit data is extracted from the following two-line orbital elements,

1 25544U 98067A   17348.07887391  .00016717  00000-0  10270-3 0  9047
2 25544  51.6404 221.5409 0002959 236.9186 123.1683 15.54116465  9725
Epoch (UTC): 14 December 2017 01:53:34
Eccentricity: 0.0002959
inclination: 51.6404°
perigee height: 403 km
apogee height: 407 km
right ascension of ascending node: 221.5409°
argument of perigee: 236.9186°
revolutions per day: 15.54116465
mean anomaly at epoch: 123.1683°
orbit number at epoch: 972

The dashed part of the orbit path shows where the satellite is in the earth's shadow,  

DLR